Theta_e
334 333 331 330 330 329 330 330 330 330 329 329 329 328 329 330 330 330 330 330 330 330 330 330 330 330 329 330 330 330 331 331 332 332 332 333 331 330 333 332 330 330
333 331 330 330 330 329 330 330 330 330 329 329 329 328 329 329 329 330 330 330 330 330 330 330 330 330 329 329 329 329 331 331 331 332 332 332 331 330 332 332 330 330
332 330 329 330 330 329 329 330 330 329 329 329 329 328 329 329 329 330 330 329 329 329 329 330 330 329 329 329 328 329 330 330 330 331 331 331 331 331 331 330 330 330
331 329 329 329 330 329 329 330 330 329 329 328 328 328 329 329 329 329 328 328 328 327 328 329 328 328 328 328 328 328 329 329 329 330 331 331 331 331 331 330 329 329
330 328 329 329 330 329 329 330 330 329 328 328 328 328 329 329 329 328 327 327 327 326 327 328 327 327 327 327 327 327 327 327 328 328 329 330 330 331 331 331 330 329
329 328 329 330 330 330 329 330 329 329 329 328 329 329 329 329 328 328 327 327 326 324 325 327 327 326 326 326 326 326 326 326 326 327 327 328 328 329 330 330 329 329
329 330 331 331 330 329 330 330 329 329 329 329 329 329 329 328 328 327 326 326 325 322 322 325 326 325 325 325 325 324 325 324 324 325 326 326 327 328 329 330 329 329
331 333 332 330 330 330 330 329 329 329 329 329 328 328 327 327 327 327 326 326 323 321 321 324 326 325 324 324 323 323 323 322 322 323 325 325 326 327 328 329 329 329
333 334 332 329 330 330 329 329 329 329 328 328 328 327 326 327 327 326 326 325 323 321 321 324 325 324 324 323 323 322 322 321 321 323 324 325 325 325 326 327 328 329
333 333 331 329 329 329 329 328 329 328 328 328 328 327 326 326 326 326 326 325 323 321 320 323 324 324 323 323 323 322 321 321 322 323 323 324 325 325 325 325 327 327
333 333 330 329 329 329 328 328 328 328 328 328 328 327 327 326 326 325 326 324 322 320 319 322 324 323 322 323 322 321 320 320 321 322 322 323 324 324 324 324 325 325
332 332 330 329 329 328 328 328 329 328 328 328 327 327 326 326 325 325 325 324 321 319 319 321 324 322 322 322 321 320 320 319 320 321 321 321 322 323 324 324 324 324
332 331 330 329 328 328 329 328 328 328 328 327 326 326 326 325 324 323 323 323 321 318 318 320 322 322 321 321 320 319 318 317 318 320 321 321 321 322 323 323 323 323
331 330 330 329 328 329 329 328 327 327 326 324 324 325 324 323 322 322 323 321 319 318 317 318 320 320 320 320 319 318 318 318 319 320 321 320 320 320 321 321 321 321
330 329 328 328 328 328 328 327 327 326 325 324 323 323 322 322 321 321 322 320 319 320 319 318 319 319 319 320 320 319 320 320 320 320 320 319 320 320 320 320 321 321
329 328 327 328 328 328 328 327 326 326 325 323 322 321 320 320 320 320 320 320 321 321 321 319 319 319 319 319 320 321 321 321 320 320 320 319 320 320 320 320 321 321
327 326 326 327 327 327 328 327 326 326 325 323 321 320 320 321 321 321 322 323 322 321 320 320 319 318 319 319 319 320 322 321 320 320 319 319 320 320 320 320 321 322
328 326 326 326 326 326 326 326 326 325 324 323 321 321 322 323 324 323 323 323 322 320 320 319 318 317 318 318 319 320 321 321 321 320 319 319 320 320 320 319 320 321
326 326 325 324 325 325 325 325 325 325 324 323 323 323 324 324 323 322 321 320 320 319 319 319 318 317 317 317 317 319 319 319 320 321 321 320 319 319 319 319 320 321
323 323 322 322 323 324 325 324 324 324 324 323 323 323 323 322 320 319 318 318 317 316 315 316 316 315 315 315 316 316 315 315 316 318 319 319 319 319 319 320 320 321
320 319 318 318 320 322 322 321 321 320 320 321 321 321 320 319 317 316 316 315 315 314 313 315 315 315 314 314 314 314 314 313 313 314 316 318 319 320 320 321 322 323
316 316 315 316 317 318 317 317 317 317 317 317 318 318 318 317 316 316 315 315 316 315 315 315 316 316 316 316 315 315 315 314 313 315 318 320 320 320 320 320 320 321
313 313 313 314 314 315 315 316 316 316 316 316 316 316 316 316 316 316 316 315 315 314 313 313 313 315 316 317 317 317 317 316 314 314 317 320 320 320 321 320 320 321
311 311 312 312 312 313 313 313 314 315 315 315 315 314 314 314 313 313 313 313 312 310 309 309 309 310 311 312 313 315 316 314 311 311 316 319 319 318 319 319 319 319
308 309 310 310 311 311 311 312 312 313 313 313 312 312 312 311 311 311 310 309 309 307 306 306 307 307 307 307 308 311 313 313 312 312 316 317 317 315 315 316 316 316
305 306 307 307 308 308 309 309 310 310 310 310 310 309 310 309 309 309 308 308 308 308 307 307 306 306 306 305 306 308 310 311 312 312 313 313 313 312 311 312 312 313
Wind_Speed
27 28 28 26 25 23 20 18 17 15 14 13 12 11 11 10 9 8 8 8 7 7 7 7 7 7 6 6 6 6 6 8 8 7 8 7 7 10 11 10 10 9
29 30 29 27 25 22 20 19 18 16 14 13 12 12 11 10 10 9 8 8 7 7 7 7 7 7 7 6 7 6 6 8 8 7 8 8 7 9 10 11 10 10
30 31 28 27 25 22 20 18 18 17 14 13 13 12 11 11 11 9 8 7 7 7 6 7 7 7 7 7 7 7 6 7 7 7 8 8 8 9 10 11 12 11
30 30 27 25 23 21 20 18 17 16 14 13 13 13 12 12 11 9 8 7 7 7 6 6 7 7 7 7 7 7 7 7 8 8 8 8 9 9 10 12 12 11
31 30 25 23 22 21 22 19 17 16 15 14 14 13 13 13 12 10 8 7 7 6 6 6 6 6 7 8 8 8 8 8 8 8 7 7 8 9 10 11 11 11
31 29 24 22 22 22 22 20 17 17 16 15 14 14 13 12 12 10 9 8 7 6 6 6 6 6 7 8 8 8 8 8 8 8 8 7 7 8 9 10 11 12
29 26 24 23 23 22 22 20 18 17 17 16 14 13 13 12 11 11 9 8 7 6 7 6 6 7 6 7 8 7 8 8 7 9 10 8 8 8 8 9 11 11
27 24 23 24 24 22 22 21 19 17 17 17 14 12 13 12 11 11 10 9 8 7 7 7 7 7 6 7 7 6 7 6 6 7 10 10 9 9 10 11 12 11
26 23 22 24 23 22 21 21 19 18 17 16 14 13 14 12 11 12 10 9 9 8 8 8 8 8 7 6 6 6 6 5 3 7 11 10 8 10 11 11 12 13
25 24 23 23 23 22 22 21 20 20 18 16 14 14 13 12 11 12 10 9 9 8 8 9 9 9 7 6 7 7 5 4 3 8 9 9 9 9 10 12 13 13
25 25 24 22 23 23 22 21 20 19 17 15 14 14 13 12 12 11 10 9 8 8 9 9 9 9 8 7 8 7 6 4 4 5 6 8 12 12 10 12 13 12
25 26 24 22 23 23 21 21 19 18 16 15 14 14 13 11 11 10 9 9 8 8 9 9 9 9 8 8 8 7 7 6 6 7 5 6 12 14 11 11 11 11
26 26 24 22 22 22 21 20 19 17 16 15 14 14 13 11 10 9 9 9 9 8 9 8 9 8 8 8 9 7 7 8 8 7 5 7 9 12 12 11 11 11
26 25 24 22 21 20 20 20 19 16 15 15 14 14 13 11 10 10 9 9 8 8 9 10 9 8 8 8 8 8 8 8 8 7 7 8 7 8 11 10 10 11
26 25 22 21 21 20 19 19 19 16 15 16 15 15 13 12 11 10 9 8 8 8 10 11 9 8 9 8 7 8 8 8 8 8 8 8 6 8 9 7 9 10
24 22 20 21 22 20 18 19 19 17 16 16 15 14 12 11 11 10 8 8 10 10 11 11 10 9 10 8 7 8 7 7 9 9 8 8 7 8 8 6 8 9
21 21 20 22 22 19 19 20 19 17 17 16 15 14 13 12 12 10 9 11 13 12 12 11 10 9 9 8 7 7 5 5 7 8 9 8 7 8 7 5 6 6
15 17 19 19 18 19 20 20 18 17 17 17 17 15 14 15 14 14 14 14 14 13 13 11 9 8 8 7 7 7 7 7 6 5 5 5 5 6 6 5 4 5
15 19 20 17 17 20 22 21 20 20 20 20 19 18 18 17 15 17 17 16 14 13 12 10 7 6 5 4 5 5 5 7 8 6 5 3 2 2 1 2 2 3
20 23 23 22 24 26 26 25 24 22 22 21 20 19 18 16 15 16 16 14 13 11 10 9 6 4 3 2 2 1 1 5 6 6 8 8 6 5 5 5 5 3
22 23 24 25 27 28 28 26 24 22 21 21 20 18 17 16 15 16 14 12 11 9 8 8 7 5 4 3 1 0 0 2 4 5 7 8 8 8 9 9 10 8
22 23 23 24 25 26 25 24 22 20 19 20 19 18 17 17 17 16 14 12 10 9 9 10 9 7 6 5 4 3 2 2 2 3 6 8 9 9 9 8 10 10
23 23 23 23 24 24 23 21 19 17 15 14 15 16 15 15 15 15 13 12 11 9 9 10 10 8 7 7 6 6 5 5 3 2 6 9 10 10 9 8 8 9
23 24 23 24 25 25 23 22 21 19 16 13 14 15 14 14 14 14 13 12 11 9 8 8 9 8 7 6 5 6 6 6 4 1 5 8 10 11 9 6 6 6
22 23 23 23 24 23 22 21 21 20 17 16 16 16 16 14 14 14 14 12 11 9 8 7 8 7 6 5 4 4 5 4 4 2 3 6 7 8 8 7 6 5
22 22 22 22 22 21 20 20 20 18 16 16 16 16 16 15 14 14 14 12 10 8 7 6 6 6 6 5 4 4 4 4 4 3 4 5 4 2 2 4 6 6
Wind_Direction
186 182 176 174 170 167 168 167 167 168 165 165 170 168 168 167 161 156 147 139 133 130 131 136 140 137 138 141 137 143 157 160 167 172 167 171 169 155 153 163 163 151
183 180 174 169 167 169 171 165 164 167 167 169 169 167 169 164 157 151 143 135 128 129 134 140 145 142 141 142 141 146 152 152 156 164 167 167 165 162 162 164 162 151
180 177 171 167 166 169 167 160 162 166 167 168 166 166 166 160 158 151 142 139 135 135 139 143 144 143 141 141 143 147 145 142 144 152 162 160 157 166 168 165 167 163
180 176 173 169 165 165 162 156 158 163 164 163 161 162 162 159 157 152 148 145 139 140 143 143 146 147 146 142 143 147 144 142 144 147 152 150 156 169 169 165 168 166
179 176 173 169 164 161 159 155 156 159 160 159 158 160 159 157 156 155 158 151 140 147 151 146 147 145 144 145 145 147 147 147 146 146 148 152 157 163 164 166 166 161
179 177 173 167 161 158 156 155 157 157 155 156 155 156 157 158 161 162 162 153 144 155 158 151 149 145 147 150 146 151 156 153 154 158 159 159 157 157 163 164 160 158
176 174 171 164 157 156 156 155 157 155 155 155 150 151 158 163 166 164 162 158 155 161 160 155 155 154 154 152 151 162 163 156 171 175 161 153 153 152 155 154 153 158
174 171 168 161 154 156 157 155 155 154 151 152 151 153 160 165 167 164 162 163 161 160 157 157 161 160 159 160 159 161 155 159 187 171 141 137 144 143 146 151 154 159
172 169 165 158 154 157 158 154 154 153 147 149 154 157 162 168 167 165 168 167 163 158 156 160 163 160 163 167 158 151 157 174 169 125 119 127 136 136 143 150 153 157
170 167 163 159 157 158 158 154 154 155 151 153 159 160 164 169 164 165 171 169 163 158 158 164 164 162 169 168 156 158 172 178 125 111 125 143 143 134 137 140 143 149
167 165 162 161 160 159 157 153 150 152 153 157 162 160 163 166 161 166 172 167 165 161 160 168 166 163 170 166 162 173 179 171 147 138 155 161 148 138 132 133 140 144
164 164 162 160 161 159 156 152 148 149 155 159 159 159 162 160 157 164 167 163 167 165 162 168 166 166 176 171 167 177 180 175 173 174 179 156 141 139 137 138 145 145
161 160 159 160 161 158 152 149 147 149 156 157 155 154 154 150 153 164 167 164 169 170 162 164 167 170 173 167 165 175 180 179 183 183 160 133 134 138 143 151 155 150
160 157 156 156 156 154 147 145 148 150 152 155 154 150 148 151 156 163 166 164 168 165 155 157 164 161 151 154 164 172 174 172 175 171 149 143 143 136 140 148 148 146
164 161 156 148 145 150 149 146 150 151 148 152 154 149 148 153 154 158 167 166 155 142 137 143 149 143 137 140 146 153 163 170 170 164 154 155 146 129 136 141 136 137
168 164 157 148 145 150 151 149 151 149 144 145 146 144 145 146 146 152 159 150 137 130 128 132 132 127 126 125 124 136 155 170 172 165 156 157 148 137 145 145 136 140
165 166 160 152 150 152 154 154 152 148 145 143 142 142 139 134 133 133 127 120 124 126 121 120 121 117 117 117 118 126 133 143 161 166 161 163 154 146 155 153 140 151
149 160 161 158 161 167 163 154 145 141 139 137 136 131 121 115 112 109 107 108 113 118 115 113 112 112 116 122 120 117 104 94 104 125 144 162 158 150 166 174 164 169
123 133 144 147 152 157 150 137 127 123 121 122 122 114 107 109 109 106 105 103 103 103 103 104 104 103 109 112 113 117 97 81 79 66 52 68 111 120 161 167 160 159
116 117 122 120 120 127 128 124 122 119 117 119 119 114 111 115 118 114 108 103 102 98 94 100 106 107 113 109 96 105 59 63 65 47 34 32 35 29 12 2 358 3
107 106 106 106 109 115 117 116 115 115 117 121 122 121 119 118 118 117 111 104 103 104 109 115 119 121 134 148 128 103 340 52 50 35 24 14 10 12 9 5 3 7
95 99 99 100 104 108 109 108 108 105 108 114 116 115 113 112 110 110 112 113 111 115 123 126 126 126 130 137 140 140 141 121 91 53 30 11 357 346 338 337 341 345
87 93 96 97 98 97 97 102 106 103 101 108 114 112 109 107 105 106 113 122 122 121 125 125 122 122 124 132 141 145 145 153 163 80 30 20 13 2 341 327 328 333
88 91 92 93 93 93 93 97 100 101 103 109 115 115 109 106 108 111 113 118 122 121 117 114 110 108 111 116 128 144 148 157 176 154 37 40 47 46 33 6 342 340
86 91 92 92 92 93 95 98 100 103 108 114 116 116 114 112 116 119 116 114 118 118 111 105 98 92 89 82 89 122 128 128 151 163 75 72 75 71 59 34 4 339
77 83 87 89 92 95 96 98 101 105 110 115 117 118 118 116 117 121 121 117 115 112 102 86 71 60 55 47 45 66 76 82 99 109 102 91 67 31 23 17 6 345